<?xml version="1.0" encoding="UTF-8"?>
<gpx
version="1.1"
creator="Kashmir3D 9.350 - http://www.kashmir3d.com"
xmlns:xsi="http://www.w3.org/2001/XMLSchema-instance"
xmlns="http://www.topografix.com/GPX/1/1"
xmlns:kashmir3d="http://www.kashmir3d.com/namespace/kashmir3d"
xsi:schemaLocation="http://www.topografix.com/GPX/1/1 http://www.topografix.com/GPX/1/1/gpx.xsd
	http://www.kashmir3d.com/namespace/kashmir3d http://www.kashmir3d.com/namespace/kashmir3d.xsd">
<trk>
 <name>筑波山.KML(筑波山)</name>
 <number>1</number>
 <extensions>
 <kashmir3d:line_color>0000ff</kashmir3d:line_color>
 <kashmir3d:line_size>3</kashmir3d:line_size>
 <kashmir3d:line_style>1</kashmir3d:line_style>
 <kashmir3d:icon>901001</kashmir3d:icon>
 </extensions>
<trkseg>
<trkpt lat="36.220179" lon="140.118706">
 <ele>529.7</ele>
 <time>2020-04-08T08:27:05Z</time>
</trkpt>
<trkpt lat="36.220308" lon="140.118610">
 <ele>533.5</ele>
 <time>2020-04-08T08:27:05Z</time>
</trkpt>
<trkpt lat="36.220454" lon="140.118502">
 <ele>538.6</ele>
 <time>2020-04-08T08:27:05Z</time>
</trkpt>
<trkpt lat="36.220566" lon="140.118438">
 <ele>544.7</ele>
 <time>2020-04-08T08:27:05Z</time>
</trkpt>
<trkpt lat="36.220814" lon="140.118374">
 <ele>556.1</ele>
 <time>2020-04-08T08:27:05Z</time>
</trkpt>
<trkpt lat="36.221012" lon="140.118309">
 <ele>567.4</ele>
 <time>2020-04-08T08:27:05Z</time>
</trkpt>
<trkpt lat="36.221141" lon="140.118202">
 <ele>574.7</ele>
 <time>2020-04-08T08:27:05Z</time>
</trkpt>
<trkpt lat="36.221226" lon="140.118105">
 <ele>581.3</ele>
 <time>2020-04-08T08:27:06Z</time>
</trkpt>
<trkpt lat="36.221295" lon="140.117826">
 <ele>588.7</ele>
 <time>2020-04-08T08:27:06Z</time>
</trkpt>
<trkpt lat="36.221415" lon="140.117676">
 <ele>593.6</ele>
 <time>2020-04-08T08:27:06Z</time>
</trkpt>
<trkpt lat="36.221553" lon="140.117505">
 <ele>603.4</ele>
 <time>2020-04-08T08:27:06Z</time>
</trkpt>
<trkpt lat="36.221621" lon="140.117311">
 <ele>612.3</ele>
 <time>2020-04-08T08:27:06Z</time>
</trkpt>
<trkpt lat="36.221707" lon="140.117118">
 <ele>619.8</ele>
 <time>2020-04-08T08:27:06Z</time>
</trkpt>
<trkpt lat="36.221844" lon="140.116968">
 <ele>625</ele>
 <time>2020-04-08T08:27:06Z</time>
</trkpt>
<trkpt lat="36.221973" lon="140.116850">
 <ele>626.3</ele>
 <time>2020-04-08T08:27:06Z</time>
</trkpt>
<trkpt lat="36.222059" lon="140.116764">
 <ele>627.3</ele>
 <time>2020-04-08T08:27:06Z</time>
</trkpt>
<trkpt lat="36.222153" lon="140.116560">
 <ele>629.4</ele>
 <time>2020-04-08T08:27:06Z</time>
</trkpt>
<trkpt lat="36.222239" lon="140.116249">
 <ele>636.3</ele>
 <time>2020-04-08T08:27:06Z</time>
</trkpt>
<trkpt lat="36.222256" lon="140.116045">
 <ele>638.1</ele>
 <time>2020-04-08T08:27:07Z</time>
</trkpt>
<trkpt lat="36.222265" lon="140.115799">
 <ele>643.4</ele>
 <time>2020-04-08T08:27:07Z</time>
</trkpt>
<trkpt lat="36.222325" lon="140.115595">
 <ele>649.7</ele>
 <time>2020-04-08T08:27:07Z</time>
</trkpt>
<trkpt lat="36.222377" lon="140.115412">
 <ele>657.8</ele>
 <time>2020-04-08T08:27:07Z</time>
</trkpt>
<trkpt lat="36.222437" lon="140.115219">
 <ele>663.2</ele>
 <time>2020-04-08T08:27:07Z</time>
</trkpt>
<trkpt lat="36.222497" lon="140.115069">
 <ele>666.3</ele>
 <time>2020-04-08T08:27:07Z</time>
</trkpt>
<trkpt lat="36.222651" lon="140.114876">
 <ele>671</ele>
 <time>2020-04-08T08:27:07Z</time>
</trkpt>
<trkpt lat="36.222780" lon="140.114629">
 <ele>672.4</ele>
 <time>2020-04-08T08:27:07Z</time>
</trkpt>
<trkpt lat="36.222857" lon="140.114458">
 <ele>675.1</ele>
 <time>2020-04-08T08:27:08Z</time>
</trkpt>
<trkpt lat="36.222926" lon="140.114222">
 <ele>679.4</ele>
 <time>2020-04-08T08:27:08Z</time>
</trkpt>
<trkpt lat="36.223003" lon="140.113900">
 <ele>682</ele>
 <time>2020-04-08T08:27:08Z</time>
</trkpt>
<trkpt lat="36.223055" lon="140.113631">
 <ele>686.3</ele>
 <time>2020-04-08T08:27:08Z</time>
</trkpt>
<trkpt lat="36.223106" lon="140.113395">
 <ele>693.6</ele>
 <time>2020-04-08T08:27:08Z</time>
</trkpt>
<trkpt lat="36.223123" lon="140.113170">
 <ele>700.7</ele>
 <time>2020-04-08T08:27:08Z</time>
</trkpt>
<trkpt lat="36.223149" lon="140.112859">
 <ele>700.1</ele>
 <time>2020-04-08T08:27:08Z</time>
</trkpt>
<trkpt lat="36.223183" lon="140.112655">
 <ele>699.8</ele>
 <time>2020-04-08T08:27:08Z</time>
</trkpt>
<trkpt lat="36.223252" lon="140.112430">
 <ele>697.9</ele>
 <time>2020-04-08T08:27:08Z</time>
</trkpt>
<trkpt lat="36.223424" lon="140.112280">
 <ele>692.9</ele>
 <time>2020-04-08T08:27:08Z</time>
</trkpt>
<trkpt lat="36.223544" lon="140.112172">
 <ele>697.5</ele>
 <time>2020-04-08T08:27:09Z</time>
</trkpt>
<trkpt lat="36.223552" lon="140.111968">
 <ele>696.1</ele>
 <time>2020-04-08T08:27:09Z</time>
</trkpt>
<trkpt lat="36.223552" lon="140.111797">
 <ele>692.5</ele>
 <time>2020-04-08T08:27:09Z</time>
</trkpt>
<trkpt lat="36.223604" lon="140.111657">
 <ele>689.2</ele>
 <time>2020-04-08T08:27:09Z</time>
</trkpt>
<trkpt lat="36.223621" lon="140.111496">
 <ele>685.9</ele>
 <time>2020-04-08T08:27:09Z</time>
</trkpt>
<trkpt lat="36.223630" lon="140.111368">
 <ele>685.2</ele>
 <time>2020-04-08T08:27:09Z</time>
</trkpt>
<trkpt lat="36.223604" lon="140.111217">
 <ele>686.4</ele>
 <time>2020-04-08T08:27:09Z</time>
</trkpt>
<trkpt lat="36.223690" lon="140.111089">
 <ele>693.8</ele>
 <time>2020-04-08T08:27:09Z</time>
</trkpt>
<trkpt lat="36.223758" lon="140.111014">
 <ele>701</ele>
 <time>2020-04-08T08:27:10Z</time>
</trkpt>
<trkpt lat="36.223758" lon="140.110863">
 <ele>707.7</ele>
 <time>2020-04-08T08:27:10Z</time>
</trkpt>
<trkpt lat="36.223793" lon="140.110724">
 <ele>714.4</ele>
 <time>2020-04-08T08:27:10Z</time>
</trkpt>
<trkpt lat="36.223947" lon="140.110670">
 <ele>723.5</ele>
 <time>2020-04-08T08:27:10Z</time>
</trkpt>
<trkpt lat="36.224016" lon="140.110692">
 <ele>725</ele>
 <time>2020-04-08T08:27:10Z</time>
</trkpt>
<trkpt lat="36.224016" lon="140.110799">
 <ele>723.7</ele>
 <time>2020-04-08T08:27:10Z</time>
</trkpt>
<trkpt lat="36.224067" lon="140.110928">
 <ele>723.3</ele>
 <time>2020-04-08T08:27:10Z</time>
</trkpt>
<trkpt lat="36.224145" lon="140.111046">
 <ele>726.8</ele>
 <time>2020-04-08T08:27:10Z</time>
</trkpt>
<trkpt lat="36.224153" lon="140.111217">
 <ele>728.4</ele>
 <time>2020-04-08T08:27:11Z</time>
</trkpt>
<trkpt lat="36.224145" lon="140.111357">
 <ele>729.4</ele>
 <time>2020-04-08T08:27:11Z</time>
</trkpt>
<trkpt lat="36.224170" lon="140.111453">
 <ele>730.7</ele>
 <time>2020-04-08T08:27:11Z</time>
</trkpt>
<trkpt lat="36.224273" lon="140.111486">
 <ele>740.5</ele>
 <time>2020-04-08T08:27:11Z</time>
</trkpt>
<trkpt lat="36.224351" lon="140.111389">
 <ele>744.3</ele>
 <time>2020-04-08T08:27:11Z</time>
</trkpt>
<trkpt lat="36.224376" lon="140.111185">
 <ele>748.6</ele>
 <time>2020-04-08T08:27:11Z</time>
</trkpt>
<trkpt lat="36.224419" lon="140.110971">
 <ele>750.9</ele>
 <time>2020-04-08T08:27:11Z</time>
</trkpt>
<trkpt lat="36.224574" lon="140.110842">
 <ele>763.4</ele>
 <time>2020-04-08T08:27:11Z</time>
</trkpt>
<trkpt lat="36.224703" lon="140.110681">
 <ele>762.7</ele>
 <time>2020-04-08T08:27:12Z</time>
</trkpt>
<trkpt lat="36.224780" lon="140.110499">
 <ele>764.4</ele>
 <time>2020-04-08T08:27:12Z</time>
</trkpt>
<trkpt lat="36.224831" lon="140.110295">
 <ele>764.9</ele>
 <time>2020-04-08T08:27:12Z</time>
</trkpt>
<trkpt lat="36.224951" lon="140.110187">
 <ele>768.3</ele>
 <time>2020-04-08T08:27:12Z</time>
</trkpt>
<trkpt lat="36.224969" lon="140.110080">
 <ele>767.6</ele>
 <time>2020-04-08T08:27:12Z</time>
</trkpt>
<trkpt lat="36.224943" lon="140.109909">
 <ele>761.8</ele>
 <time>2020-04-08T08:27:12Z</time>
</trkpt>
<trkpt lat="36.225012" lon="140.109780">
 <ele>760.7</ele>
 <time>2020-04-08T08:27:13Z</time>
</trkpt>
<trkpt lat="36.225097" lon="140.109694">
 <ele>760.9</ele>
 <time>2020-04-08T08:27:13Z</time>
</trkpt>
<trkpt lat="36.225132" lon="140.109479">
 <ele>759.3</ele>
 <time>2020-04-08T08:27:13Z</time>
</trkpt>
<trkpt lat="36.225157" lon="140.109308">
 <ele>758</ele>
 <time>2020-04-08T08:27:13Z</time>
</trkpt>
<trkpt lat="36.225123" lon="140.109200">
 <ele>759.7</ele>
 <time>2020-04-08T08:27:13Z</time>
</trkpt>
<trkpt lat="36.225175" lon="140.109093">
 <ele>759</ele>
 <time>2020-04-08T08:27:13Z</time>
</trkpt>
<trkpt lat="36.225183" lon="140.108921">
 <ele>761.1</ele>
 <time>2020-04-08T08:27:13Z</time>
</trkpt>
<trkpt lat="36.225072" lon="140.108750">
 <ele>765.4</ele>
 <time>2020-04-08T08:27:13Z</time>
</trkpt>
<trkpt lat="36.225063" lon="140.108578">
 <ele>770.2</ele>
 <time>2020-04-08T08:27:14Z</time>
</trkpt>
<trkpt lat="36.225080" lon="140.108385">
 <ele>776.5</ele>
 <time>2020-04-08T08:27:14Z</time>
</trkpt>
<trkpt lat="36.225149" lon="140.108321">
 <ele>779.9</ele>
 <time>2020-04-08T08:27:14Z</time>
</trkpt>
<trkpt lat="36.225192" lon="140.108256">
 <ele>781.8</ele>
 <time>2020-04-08T08:27:14Z</time>
</trkpt>
<trkpt lat="36.225192" lon="140.108117">
 <ele>784.6</ele>
 <time>2020-04-08T08:27:14Z</time>
</trkpt>
<trkpt lat="36.225192" lon="140.107977">
 <ele>787.1</ele>
 <time>2020-04-08T08:27:14Z</time>
</trkpt>
<trkpt lat="36.225166" lon="140.107891">
 <ele>790.4</ele>
 <time>2020-04-08T08:27:14Z</time>
</trkpt>
<trkpt lat="36.225054" lon="140.107773">
 <ele>788.4</ele>
 <time>2020-04-08T08:27:14Z</time>
</trkpt>
<trkpt lat="36.224891" lon="140.107645">
 <ele>792.9</ele>
 <time>2020-04-08T08:27:15Z</time>
</trkpt>
<trkpt lat="36.224788" lon="140.107580">
 <ele>795.9</ele>
 <time>2020-04-08T08:27:15Z</time>
</trkpt>
<trkpt lat="36.224745" lon="140.107473">
 <ele>804</ele>
 <time>2020-04-08T08:27:15Z</time>
</trkpt>
<trkpt lat="36.224806" lon="140.107323">
 <ele>810.8</ele>
 <time>2020-04-08T08:27:15Z</time>
</trkpt>
<trkpt lat="36.224926" lon="140.107237">
 <ele>815.4</ele>
 <time>2020-04-08T08:27:15Z</time>
</trkpt>
<trkpt lat="36.225106" lon="140.107237">
 <ele>818.3</ele>
 <time>2020-04-08T08:27:15Z</time>
</trkpt>
<trkpt lat="36.225466" lon="140.107012">
 <ele>842.4</ele>
 <time>2020-04-08T08:27:15Z</time>
</trkpt>
<trkpt lat="36.225569" lon="140.106969">
 <ele>842.3</ele>
 <time>2020-04-08T08:27:15Z</time>
</trkpt>
<trkpt lat="36.225655" lon="140.106754">
 <ele>856.8</ele>
 <time>2020-04-08T08:27:15Z</time>
</trkpt>
<trkpt lat="36.225741" lon="140.106604">
 <ele>859.4</ele>
 <time>2020-04-08T08:27:16Z</time>
</trkpt>
<trkpt lat="36.225690" lon="140.106486">
 <ele>860.8</ele>
 <time>2020-04-08T08:27:16Z</time>
</trkpt>
<trkpt lat="36.225561" lon="140.106507">
 <ele>865.9</ele>
 <time>2020-04-08T08:27:16Z</time>
</trkpt>
<trkpt lat="36.225458" lon="140.106615">
 <ele>870.5</ele>
 <time>2020-04-08T08:27:16Z</time>
</trkpt>
<trkpt lat="36.225389" lon="140.106708">
 <ele>873.4</ele>
 <time>2020-04-08T08:27:16Z</time>
</trkpt>
<trkpt lat="36.225458" lon="140.106615">
 <ele>870.5</ele>
 <time>2020-04-08T08:27:16Z</time>
</trkpt>
<trkpt lat="36.225561" lon="140.106507">
 <ele>865.9</ele>
 <time>2020-04-08T08:27:16Z</time>
</trkpt>
<trkpt lat="36.225690" lon="140.106486">
 <ele>860.8</ele>
 <time>2020-04-08T08:27:16Z</time>
</trkpt>
<trkpt lat="36.225741" lon="140.106604">
 <ele>859.4</ele>
 <time>2020-04-08T08:27:16Z</time>
</trkpt>
<trkpt lat="36.225655" lon="140.106754">
 <ele>856.8</ele>
 <time>2020-04-08T08:27:16Z</time>
</trkpt>
<trkpt lat="36.225569" lon="140.106969">
 <ele>842.3</ele>
 <time>2020-04-08T08:27:16Z</time>
</trkpt>
<trkpt lat="36.225466" lon="140.107012">
 <ele>842.4</ele>
 <time>2020-04-08T08:27:16Z</time>
</trkpt>
<trkpt lat="36.225106" lon="140.107237">
 <ele>818.3</ele>
 <time>2020-04-08T08:27:17Z</time>
</trkpt>
<trkpt lat="36.224926" lon="140.107237">
 <ele>815.4</ele>
 <time>2020-04-08T08:27:17Z</time>
</trkpt>
<trkpt lat="36.224806" lon="140.107323">
 <ele>810.8</ele>
 <time>2020-04-08T08:27:17Z</time>
</trkpt>
<trkpt lat="36.224745" lon="140.107473">
 <ele>804</ele>
 <time>2020-04-08T08:27:17Z</time>
</trkpt>
<trkpt lat="36.224788" lon="140.107580">
 <ele>795.9</ele>
 <time>2020-04-08T08:27:17Z</time>
</trkpt>
<trkpt lat="36.224891" lon="140.107645">
 <ele>792.9</ele>
 <time>2020-04-08T08:27:17Z</time>
</trkpt>
<trkpt lat="36.225054" lon="140.107773">
 <ele>788.4</ele>
 <time>2020-04-08T08:27:17Z</time>
</trkpt>
<trkpt lat="36.225166" lon="140.107891">
 <ele>790.4</ele>
 <time>2020-04-08T08:27:17Z</time>
</trkpt>
<trkpt lat="36.225192" lon="140.107977">
 <ele>787.1</ele>
 <time>2020-04-08T08:27:17Z</time>
</trkpt>
<trkpt lat="36.225192" lon="140.108117">
 <ele>784.6</ele>
 <time>2020-04-08T08:27:17Z</time>
</trkpt>
<trkpt lat="36.225192" lon="140.108256">
 <ele>781.8</ele>
 <time>2020-04-08T08:27:17Z</time>
</trkpt>
<trkpt lat="36.225149" lon="140.108321">
 <ele>779.9</ele>
 <time>2020-04-08T08:27:17Z</time>
</trkpt>
<trkpt lat="36.225080" lon="140.108385">
 <ele>776.5</ele>
 <time>2020-04-08T08:27:17Z</time>
</trkpt>
<trkpt lat="36.225063" lon="140.108578">
 <ele>770.2</ele>
 <time>2020-04-08T08:27:17Z</time>
</trkpt>
<trkpt lat="36.225072" lon="140.108750">
 <ele>765.4</ele>
 <time>2020-04-08T08:27:17Z</time>
</trkpt>
<trkpt lat="36.225183" lon="140.108921">
 <ele>761.1</ele>
 <time>2020-04-08T08:27:17Z</time>
</trkpt>
<trkpt lat="36.225175" lon="140.109093">
 <ele>759</ele>
 <time>2020-04-08T08:27:17Z</time>
</trkpt>
<trkpt lat="36.225123" lon="140.109200">
 <ele>759.7</ele>
 <time>2020-04-08T08:27:17Z</time>
</trkpt>
<trkpt lat="36.225157" lon="140.109308">
 <ele>758</ele>
 <time>2020-04-08T08:27:18Z</time>
</trkpt>
<trkpt lat="36.225132" lon="140.109479">
 <ele>759.3</ele>
 <time>2020-04-08T08:27:18Z</time>
</trkpt>
<trkpt lat="36.225097" lon="140.109694">
 <ele>760.9</ele>
 <time>2020-04-08T08:27:18Z</time>
</trkpt>
<trkpt lat="36.225012" lon="140.109780">
 <ele>760.7</ele>
 <time>2020-04-08T08:27:18Z</time>
</trkpt>
<trkpt lat="36.224943" lon="140.109909">
 <ele>761.8</ele>
 <time>2020-04-08T08:27:18Z</time>
</trkpt>
<trkpt lat="36.224969" lon="140.110080">
 <ele>767.6</ele>
 <time>2020-04-08T08:27:18Z</time>
</trkpt>
<trkpt lat="36.224951" lon="140.110187">
 <ele>768.3</ele>
 <time>2020-04-08T08:27:18Z</time>
</trkpt>
<trkpt lat="36.224831" lon="140.110295">
 <ele>764.9</ele>
 <time>2020-04-08T08:27:18Z</time>
</trkpt>
<trkpt lat="36.224780" lon="140.110499">
 <ele>764.4</ele>
 <time>2020-04-08T08:27:18Z</time>
</trkpt>
<trkpt lat="36.224703" lon="140.110681">
 <ele>762.7</ele>
 <time>2020-04-08T08:27:18Z</time>
</trkpt>
<trkpt lat="36.224574" lon="140.110842">
 <ele>763.4</ele>
 <time>2020-04-08T08:27:18Z</time>
</trkpt>
<trkpt lat="36.224419" lon="140.110971">
 <ele>750.9</ele>
 <time>2020-04-08T08:27:18Z</time>
</trkpt>
<trkpt lat="36.224376" lon="140.111185">
 <ele>748.6</ele>
 <time>2020-04-08T08:27:18Z</time>
</trkpt>
<trkpt lat="36.224351" lon="140.111389">
 <ele>744.3</ele>
 <time>2020-04-08T08:27:18Z</time>
</trkpt>
<trkpt lat="36.224273" lon="140.111486">
 <ele>740.5</ele>
 <time>2020-04-08T08:27:18Z</time>
</trkpt>
<trkpt lat="36.224170" lon="140.111453">
 <ele>730.7</ele>
 <time>2020-04-08T08:27:18Z</time>
</trkpt>
<trkpt lat="36.224145" lon="140.111357">
 <ele>729.4</ele>
 <time>2020-04-08T08:27:18Z</time>
</trkpt>
<trkpt lat="36.224153" lon="140.111217">
 <ele>728.4</ele>
 <time>2020-04-08T08:27:18Z</time>
</trkpt>
<trkpt lat="36.224145" lon="140.111046">
 <ele>726.8</ele>
 <time>2020-04-08T08:27:19Z</time>
</trkpt>
<trkpt lat="36.224067" lon="140.110928">
 <ele>723.3</ele>
 <time>2020-04-08T08:27:19Z</time>
</trkpt>
<trkpt lat="36.224016" lon="140.110799">
 <ele>723.7</ele>
 <time>2020-04-08T08:27:19Z</time>
</trkpt>
<trkpt lat="36.224016" lon="140.110692">
 <ele>725</ele>
 <time>2020-04-08T08:27:19Z</time>
</trkpt>
<trkpt lat="36.223947" lon="140.110670">
 <ele>723.5</ele>
 <time>2020-04-08T08:27:19Z</time>
</trkpt>
<trkpt lat="36.223793" lon="140.110724">
 <ele>714.4</ele>
 <time>2020-04-08T08:27:19Z</time>
</trkpt>
<trkpt lat="36.223758" lon="140.110863">
 <ele>707.7</ele>
 <time>2020-04-08T08:27:19Z</time>
</trkpt>
<trkpt lat="36.223758" lon="140.111014">
 <ele>701</ele>
 <time>2020-04-08T08:27:19Z</time>
</trkpt>
<trkpt lat="36.223690" lon="140.111089">
 <ele>693.8</ele>
 <time>2020-04-08T08:27:19Z</time>
</trkpt>
<trkpt lat="36.223604" lon="140.111217">
 <ele>686.4</ele>
 <time>2020-04-08T08:27:19Z</time>
</trkpt>
<trkpt lat="36.223630" lon="140.111368">
 <ele>685.2</ele>
 <time>2020-04-08T08:27:19Z</time>
</trkpt>
<trkpt lat="36.223621" lon="140.111496">
 <ele>685.9</ele>
 <time>2020-04-08T08:27:19Z</time>
</trkpt>
<trkpt lat="36.223604" lon="140.111657">
 <ele>689.2</ele>
 <time>2020-04-08T08:27:19Z</time>
</trkpt>
<trkpt lat="36.223552" lon="140.111797">
 <ele>692.5</ele>
 <time>2020-04-08T08:27:19Z</time>
</trkpt>
<trkpt lat="36.223552" lon="140.111968">
 <ele>696.1</ele>
 <time>2020-04-08T08:27:19Z</time>
</trkpt>
<trkpt lat="36.223544" lon="140.112172">
 <ele>697.5</ele>
 <time>2020-04-08T08:27:19Z</time>
</trkpt>
<trkpt lat="36.223424" lon="140.112280">
 <ele>692.9</ele>
 <time>2020-04-08T08:27:19Z</time>
</trkpt>
<trkpt lat="36.223252" lon="140.112430">
 <ele>697.9</ele>
 <time>2020-04-08T08:27:19Z</time>
</trkpt>
<trkpt lat="36.223183" lon="140.112655">
 <ele>699.8</ele>
 <time>2020-04-08T08:27:20Z</time>
</trkpt>
<trkpt lat="36.223149" lon="140.112859">
 <ele>700.1</ele>
 <time>2020-04-08T08:27:20Z</time>
</trkpt>
<trkpt lat="36.223123" lon="140.113170">
 <ele>700.7</ele>
 <time>2020-04-08T08:27:20Z</time>
</trkpt>
<trkpt lat="36.223106" lon="140.113395">
 <ele>693.6</ele>
 <time>2020-04-08T08:27:20Z</time>
</trkpt>
<trkpt lat="36.223055" lon="140.113631">
 <ele>686.3</ele>
 <time>2020-04-08T08:27:20Z</time>
</trkpt>
<trkpt lat="36.223003" lon="140.113900">
 <ele>682</ele>
 <time>2020-04-08T08:27:20Z</time>
</trkpt>
<trkpt lat="36.222926" lon="140.114222">
 <ele>679.4</ele>
 <time>2020-04-08T08:27:20Z</time>
</trkpt>
<trkpt lat="36.222857" lon="140.114458">
 <ele>675.1</ele>
 <time>2020-04-08T08:27:20Z</time>
</trkpt>
<trkpt lat="36.222780" lon="140.114629">
 <ele>672.4</ele>
 <time>2020-04-08T08:27:20Z</time>
</trkpt>
<trkpt lat="36.222651" lon="140.114876">
 <ele>671</ele>
 <time>2020-04-08T08:27:20Z</time>
</trkpt>
<trkpt lat="36.222497" lon="140.115069">
 <ele>666.3</ele>
 <time>2020-04-08T08:27:20Z</time>
</trkpt>
<trkpt lat="36.222437" lon="140.115219">
 <ele>663.2</ele>
 <time>2020-04-08T08:27:20Z</time>
</trkpt>
<trkpt lat="36.222377" lon="140.115412">
 <ele>657.8</ele>
 <time>2020-04-08T08:27:20Z</time>
</trkpt>
<trkpt lat="36.222325" lon="140.115595">
 <ele>649.7</ele>
 <time>2020-04-08T08:27:20Z</time>
</trkpt>
<trkpt lat="36.222265" lon="140.115799">
 <ele>643.4</ele>
 <time>2020-04-08T08:27:20Z</time>
</trkpt>
<trkpt lat="36.222256" lon="140.116045">
 <ele>638.1</ele>
 <time>2020-04-08T08:27:20Z</time>
</trkpt>
<trkpt lat="36.222239" lon="140.116249">
 <ele>636.3</ele>
 <time>2020-04-08T08:27:20Z</time>
</trkpt>
<trkpt lat="36.222153" lon="140.116560">
 <ele>629.4</ele>
 <time>2020-04-08T08:27:20Z</time>
</trkpt>
<trkpt lat="36.222059" lon="140.116764">
 <ele>627.3</ele>
 <time>2020-04-08T08:27:20Z</time>
</trkpt>
<trkpt lat="36.221973" lon="140.116850">
 <ele>626.3</ele>
 <time>2020-04-08T08:27:21Z</time>
</trkpt>
<trkpt lat="36.221844" lon="140.116968">
 <ele>625</ele>
 <time>2020-04-08T08:27:21Z</time>
</trkpt>
<trkpt lat="36.221707" lon="140.117118">
 <ele>619.8</ele>
 <time>2020-04-08T08:27:21Z</time>
</trkpt>
<trkpt lat="36.221621" lon="140.117311">
 <ele>612.3</ele>
 <time>2020-04-08T08:27:21Z</time>
</trkpt>
<trkpt lat="36.221553" lon="140.117505">
 <ele>603.4</ele>
 <time>2020-04-08T08:27:21Z</time>
</trkpt>
<trkpt lat="36.221415" lon="140.117676">
 <ele>593.6</ele>
 <time>2020-04-08T08:27:21Z</time>
</trkpt>
<trkpt lat="36.221295" lon="140.117826">
 <ele>588.7</ele>
 <time>2020-04-08T08:27:21Z</time>
</trkpt>
<trkpt lat="36.221226" lon="140.118105">
 <ele>581.3</ele>
 <time>2020-04-08T08:27:21Z</time>
</trkpt>
<trkpt lat="36.221141" lon="140.118202">
 <ele>574.7</ele>
 <time>2020-04-08T08:27:21Z</time>
</trkpt>
<trkpt lat="36.221012" lon="140.118309">
 <ele>567.4</ele>
 <time>2020-04-08T08:27:21Z</time>
</trkpt>
<trkpt lat="36.220814" lon="140.118374">
 <ele>556.1</ele>
 <time>2020-04-08T08:27:21Z</time>
</trkpt>
<trkpt lat="36.220566" lon="140.118438">
 <ele>544.7</ele>
 <time>2020-04-08T08:27:21Z</time>
</trkpt>
<trkpt lat="36.220454" lon="140.118502">
 <ele>538.6</ele>
 <time>2020-04-08T08:27:21Z</time>
</trkpt>
<trkpt lat="36.220308" lon="140.118610">
 <ele>533.5</ele>
 <time>2020-04-08T08:27:21Z</time>
</trkpt>
<trkpt lat="36.220179" lon="140.118706">
 <ele>529.7</ele>
 <time>2020-04-08T08:27:21Z</time>
</trkpt>
</trkseg>
</trk>
</gpx>

